SCP
0 0 0 0 0 0 0 0 0 0 0 0 0 0 0 0 0 0 0 0 0 0 0 0 0 0 0 0 0 0 0 0 0 0 0 0 0 0 0 0 0 0 0 0 0 0 0 0 0
0 0 0 0 0 0 0 0 0 0 0 0 0 0 0 0 0 0 0 0 0 0 0 0 0 0 0 0 0 0 0 0 0 0 0 0 0 0 0 0 0 0 0 0 0 0 0 0 0
0 0 0 0 0 0 0 0 0 0 0 0 -0 0 0 0 0 0 0 0 0 0 0 0 0 0 0 0 0 0 0 0 0 0 0 0 0 0 0 0 0 0 0 0 0 0 0 0 0
0 0 0 0 0 0 0 0 0 0 0 0 -0 0 0 0 0 0 0 0 0 0 0 0 0 0 0 0 0 0 0 0 0 0 0 0 0 0 0 0 0 0 0 0 0 0 0 0 0
0 0 0 0 0 0 0 0 0 0 0 0 0 0 0 0 0 0 0 0 0 0 0 0 0 0 0 0 0 0 0 0 0 0 0 0 0 0 0 0 0 0 0 0 0 0 0 0 0
0 0 0 0 0 0 0 0 0 0 0 0 0 0 0 0 0 0 0 0 0 0 0 0 0 0 0 0 0 0 0 0 0 0 0 0 0 0 0 0 0 0 0 0 0 0 0 0 0
0 0 0 0 0 0 0 0 0 0 0 0 0 0 0 0 0 0 0 0 0 0 0 0 0 0 0 0 0 0 0 0 0 0 0 0 0 0 0 0 0 0 0 0 0 0 0 0 0
0 0 0 0 0 0 0 0 0 0 0 0 0 0 0 0 0 0 0 0 0 0 0 0 0 0 0 0 0 0 0 0 0 0 0 0 0 0 0 0 0 0 0 0 0 0 0 0 0
0 0 0 0 0 0 0 0 0 0 0 0 0 0 0 0 0 0 0 0 0 0 0 0 0 0 0 0 0 0 0 0 0 0 0 0 0 0 0 0 0 0 0 0 0 0 0 0 0
0 0 0 0 0 0 0 0 0 0 0 0 0 0 0 0 0 0 0 0 0 0 0 0 0 0 0 0 0 0 0 0 0 0 0 0 0 0 0 0 0 0 0 0 0 0 0 0 0
0 0 0 0 0 0 0 0 0 0 0 0 0 0 0 0 0 0 0 0 0 0 0 0 0 0 0 0 0 0 0 0 0 0 0 0 0 0 0 0 0 0 0 0 0 0 0 0 0
0 0 0 0 0 0 0 0 0 0 0 0 0 0 0 0 0 0 0 0 0 0 0 0 0 0 0 0 0 0 0 0 0 0 0 0 0 0 0 0 0 0 0 0 0 0 0 0 0
0 0 0 0 0 0 0 0 0 0 0 0 0 0 0 0 0 0 0 0 0 0 0 0 0 0 0 0 0 0 0 0 0 0 0 0 0 0 0 0 0 0 0 0 0 0 0 0 0
0 0 0 0 0 0 0 0 0 0 0 0 0 0 0 0 0 0 0 0 0 0 0 0 0 0 0 0 0 0 0 0 0 0 0 0 0 0 0 0 0 0 0 0 0 0 0 0 0
0 0 0 0 0 0 0 0 0 0 0 0 0 0 0 0 0 0 0 0 0 0 0 0 0 0 0 0 0 0 0 0 0 0 0 0 0 0 0 0 0 0 0 0 0 0 0 0 0
0 0 0 0 0 0 0 0 0 0 0 0 0 0 0 0 0 0 0 0 0 0 0 0 0 0 0 0 0 0 0 0 0 0 0 0 0 0 0 0 0 0 0 0 0 0 0 0 0
0 0 0 0 0 0 0 0 0 0 0 0 0 0 0 0 0 0 0 0 0 0 0 0 0 0 0 0 0 0 0 0 0 0 0 0 0 0 0 0 0 0 0 0 0 0 0 0 0
0 0 0 0 0 0 0 0 0 0 0 0 0 0 0 0 0 0 0 0 0 0 0 0 0 0 0 0 0 0 0 0 0 0 0 0 0 0 0 0 0 0 0 0 0 0 0 0 0
0 0 0 0 0 0 0 0 0 0 0 0 0 0 0 0 0 0 0 0 0 0 0 0 0 0 0 0 0 0 0 0 0 0 0 0 0 0 0 0 0 0 0 0 0 0 0 0 0
0 0 0 0 0 0 0 0 0 0 0 0 0 0 0 0 0 0 0 0 0 0 0 0 0 0 0 0 0 0 0 0 0 0 0 0 0 0 0 0 0 0 0 0 0 0 0 0 0
0 0 0 0 0 0 0 0 0 0 0 0 0 0 0 0 0 0 0 0 0 0 0 0 0 0 0 0 0 0 0 0 0 0 0 0 0 0 0 0 0 0 0 0 0 0 0 0 0
0 0 0 0 0 0 0 0 0 0 0 0 0 0 0 0 0 0 0 0 0 0 0 0 0 0 0 0 0 0 0 0 0 0 0 0 0 0 0 0 0 0 0 0 0 0 0 0 0
0 0 0 0 0 0 0 0 0 0 0 0 0 0 0 0 0 0 0 0 0 0 0 0 0 0 0 0 0 0 0 0 0 0 0 0 0 0 0 0 0 0 0 0 0 0 0 0 0
0 0 0 0 0 0 0 0 0 0 0 0 0 0 0 0 0 0 0 0 0 0 0 0 0 0 0 0 0 0 0 0 0 0 0 0 0 0 0 0 0 0 0 0 0 0 0 0 0
0 0 0 0 0 0 0 0 0 0 0 0 0 0 0 0 0 0 0 0 0 0 0 0 0 0 0 0 0 0 0 0 0 0 0 0 0 0 0 0 0 0 0 0 0 0 0 0 0
0 0 0 0 0 0 0 0 0 0 0 0 0 0 0 0 0 0 0 0 0 0 0 0 0 0 0 0 0 0 0 0 0 0 0 0 0 0 0 0 0 0 0 0 0 0 0 0 0
0 0 0 0 0 0 0 0 0 0 0 0 0 0 0 0 0 0 0 0 0 0 0 0 0 0 0 0 0 0 0 0 0 0 0 0 0 0 0 0 0 0 0 0 0 0 0 0 0
0 0 0 0 0 0 0 0 0 0 0 0 0 0 0 0 0 0 0 0 0 0 0 0 0 0 0 0 0 0 0 0 0 0 0 0 0 0 0 0 0 0 0 0 0 0 0 0 0
0 0 0 0 0 0 0 0 0 0 0 0 0 0 0 0 0 0 0 0 0 0 0 0 0 0 0 0 0 0 0 0 0 0 0 0 0 0 0 0 0 0 0 0 0 0 0 0 0
0 0 0 0 0 0 0 0 0 0 0 0 0 0 0 0 0 0 0 0 0 0 0 0 0 0 0 0 0 0 0 0 0 0 0 0 0 0 0 0 0 0 0 0 0 0 0 0 0
Wind_Speed
5 2 3 5 7 6 2 2 5 3 2 1 4 9 8 4 2 3 3 9 11 10 8 8 10 13 13 14 13 13 13 13 13 13 14 15 17 18 18 18 18 18 18 18 18 18 18 18 18
2 3 6 6 6 3 1 2 4 2 4 3 5 7 6 3 2 6 6 9 12 11 9 9 11 13 14 14 13 13 13 13 13 13 14 15 17 18 18 18 17 17 18 17 18 18 18 18 19
2 4 5 5 4 6 5 4 6 2 2 3 4 5 6 4 5 6 7 13 12 10 8 10 12 14 14 14 14 13 13 13 13 13 14 16 17 17 17 17 17 17 17 17 17 17 17 18 19
4 5 6 5 2 3 8 7 6 6 2 3 5 5 3 2 6 6 12 13 11 9 9 10 13 14 15 14 14 14 14 13 13 14 15 16 17 17 17 17 17 16 16 16 16 16 17 18 19
5 5 5 3 0 1 3 7 7 6 5 3 5 5 1 3 4 11 13 12 12 9 8 10 13 14 14 14 14 14 14 13 13 14 15 16 16 16 16 16 16 16 16 16 16 16 17 18 18
5 5 5 1 1 2 3 5 6 5 4 3 6 6 2 1 7 11 12 11 11 10 9 9 12 13 13 13 13 14 14 14 14 14 15 15 16 16 16 16 16 16 16 16 16 16 17 17 18
5 5 3 3 2 2 4 6 8 6 5 6 8 7 2 2 5 8 10 11 10 10 9 7 8 10 12 12 12 12 12 13 13 14 14 14 14 15 15 15 15 16 16 16 16 16 17 18 18
5 5 2 1 4 4 3 4 4 7 5 3 7 9 7 8 6 7 9 10 9 9 9 8 7 7 7 8 12 12 12 12 12 12 12 12 12 13 12 11 14 15 15 15 16 16 17 17 17
5 5 1 2 4 5 4 3 2 3 5 3 2 6 7 10 8 8 7 6 8 9 9 9 8 8 7 7 10 11 11 11 12 10 12 10 6 6 7 9 13 15 15 15 15 16 16 15 16
5 4 3 2 3 6 5 5 6 4 3 2 2 2 5 10 10 11 10 11 11 12 10 9 9 9 8 7 7 6 6 7 6 6 7 5 5 5 6 10 11 12 13 14 15 15 13 10 6
4 5 4 1 1 4 5 4 5 9 4 7 8 8 10 9 10 11 11 11 11 11 11 10 10 10 9 6 7 4 4 5 5 7 7 6 5 4 4 4 6 6 8 6 8 7 5 5 5
3 2 3 2 1 3 4 5 4 6 8 7 10 14 14 14 16 16 14 11 9 10 12 11 11 10 10 8 7 7 6 5 6 7 8 7 5 4 4 3 4 4 3 4 4 4 5 6 6
3 3 2 2 3 2 2 2 3 6 5 1 8 13 15 16 16 13 11 9 9 11 12 12 12 12 11 9 8 8 8 8 8 7 8 8 7 7 6 4 4 4 4 4 5 5 6 6 6
3 3 3 2 2 1 1 1 2 7 3 5 10 14 15 16 15 10 10 11 12 13 14 12 13 13 12 10 9 9 9 8 8 8 9 10 8 8 8 7 6 5 5 4 5 6 6 5 5
3 4 1 1 2 1 2 4 6 5 3 6 8 11 13 13 11 13 15 16 17 13 12 13 13 13 13 13 11 9 9 9 9 9 10 11 10 10 9 8 7 6 6 6 5 6 5 5 5
4 3 1 4 3 2 3 6 7 4 5 8 8 8 10 11 12 14 14 14 13 11 11 13 11 13 14 12 11 9 9 10 9 9 10 13 12 12 10 8 8 8 7 7 7 6 5 5 5
2 2 4 3 3 3 4 7 7 3 2 7 8 9 10 11 12 13 14 15 14 14 13 14 14 15 14 12 10 9 8 10 9 9 9 12 13 13 11 9 8 9 8 7 8 6 6 6 6
6 4 3 4 4 4 4 8 10 7 3 7 8 9 10 12 16 14 15 16 14 14 13 14 14 14 12 9 7 6 7 8 8 9 10 13 12 14 12 9 10 11 9 8 8 8 5 6 6
6 5 3 3 1 5 7 9 11 9 6 9 10 11 12 14 13 9 11 13 12 12 13 15 15 14 11 8 9 9 10 8 8 8 10 13 13 14 13 9 11 11 11 12 12 7 9 6 6
3 2 2 1 1 2 5 10 10 9 9 10 11 12 13 12 10 9 9 9 12 14 14 15 16 14 13 12 9 6 5 4 5 5 8 11 13 14 12 13 11 12 10 11 12 10 7 5 8
4 5 4 3 1 2 3 9 7 6 5 7 9 10 10 11 12 9 8 9 10 13 15 14 16 16 14 11 5 3 3 2 4 6 8 10 11 13 13 14 12 13 12 13 15 15 14 10 9
5 4 5 4 1 4 1 6 8 6 8 8 9 8 9 8 8 7 6 7 9 13 11 12 12 12 11 11 9 10 10 10 9 6 5 6 8 10 12 13 13 13 12 13 14 16 12 11 11
5 2 3 2 2 2 2 4 10 5 6 10 10 8 6 4 4 4 5 6 6 6 6 7 7 8 8 10 11 11 11 9 4 4 5 7 7 8 10 11 12 13 13 14 15 16 14 11 11
7 7 8 6 5 4 5 6 10 6 8 8 6 4 1 1 1 1 2 2 2 1 2 3 5 6 6 8 9 11 12 9 7 6 6 6 5 7 9 10 11 12 12 14 15 16 18 15 13
6 7 3 2 2 8 3 5 11 10 9 7 5 2 2 3 3 3 4 4 3 2 0 2 4 5 5 7 9 10 10 10 12 10 8 8 6 7 10 10 11 11 12 13 13 14 15 17 16
7 10 10 8 7 6 3 9 10 8 6 4 2 2 4 4 2 2 3 3 3 2 0 2 3 4 5 6 7 7 8 8 8 9 8 9 9 9 9 11 12 12 12 12 13 13 14 13 16
8 6 7 7 3 2 7 7 10 6 3 2 1 4 5 4 3 3 3 2 2 2 1 2 3 4 5 6 6 6 7 8 9 8 9 8 8 6 9 11 12 12 12 12 12 12 14 14 15
7 10 6 6 6 6 7 6 6 4 6 3 2 3 3 3 3 4 3 3 3 2 2 2 3 4 4 5 5 5 7 8 8 7 9 9 8 8 9 11 12 12 12 12 13 12 12 14 14
7 6 6 6 6 7 6 9 8 8 5 3 2 2 2 3 3 4 4 4 4 3 2 2 3 3 4 5 5 6 6 6 7 8 10 9 8 8 9 10 11 13 13 13 13 14 12 14 15
7 9 10 9 7 6 5 9 4 4 2 5 4 3 3 3 3 3 4 4 5 4 4 3 3 4 5 5 5 6 6 6 7 9 9 8 9 8 9 10 11 12 13 12 14 15 14 14 15
Wind_Direction
329 5 76 58 55 53 113 170 151 131 100 100 98 101 106 109 142 155 140 146 137 142 146 140 128 120 114 108 105 102 100 99 97 96 96 97 99 98 95 94 92 91 91 92 91 89 86 86 88
343 40 55 60 84 93 236 180 130 134 157 136 90 94 88 75 86 113 131 151 141 143 145 141 132 125 120 113 110 106 104 103 102 101 100 100 100 99 98 96 94 94 94 94 92 88 85 85 88
7 58 78 72 109 164 178 190 151 130 140 110 81 82 116 136 135 150 158 146 139 143 143 142 137 131 125 119 115 111 109 108 108 107 103 102 101 100 100 99 97 96 97 96 93 88 86 87 89
67 48 56 72 125 203 170 184 160 127 85 80 100 82 85 154 170 157 143 143 140 143 143 146 141 136 131 126 121 118 116 115 114 111 107 105 105 104 103 102 100 99 98 97 93 89 89 91 92
63 77 63 45 276 56 146 167 156 131 140 118 109 112 88 318 144 135 141 143 142 142 144 150 144 140 137 133 129 126 123 122 119 116 112 110 109 108 107 105 104 103 102 99 95 91 90 93 93
60 68 82 105 192 117 168 181 143 124 156 140 116 123 157 277 137 141 144 144 145 145 146 150 147 144 143 139 135 132 130 128 126 122 119 117 115 114 112 111 110 108 106 103 99 95 93 94 93
103 100 143 173 177 187 191 166 141 141 159 175 136 124 173 237 173 144 141 141 142 145 146 147 149 150 148 143 139 137 135 134 132 128 123 120 119 118 117 117 116 114 111 107 103 98 96 96 94
120 102 98 161 175 204 189 143 143 146 173 166 127 145 187 211 188 139 134 139 143 148 152 153 153 152 150 147 146 143 141 138 132 126 121 119 119 118 117 118 120 119 117 113 108 102 98 97 94
88 80 134 215 186 193 197 125 92 112 118 86 90 171 196 164 151 136 134 139 153 160 163 161 160 158 155 153 154 148 144 139 132 129 127 120 115 114 116 123 124 124 122 119 113 104 98 95 92
86 134 213 232 188 179 184 157 149 114 105 108 52 37 127 145 156 162 165 167 170 174 174 170 169 166 162 162 155 152 148 145 140 141 136 127 124 123 122 123 125 126 126 123 118 107 98 90 80
126 173 211 158 66 149 161 168 153 132 185 200 186 173 154 163 173 180 182 178 180 177 177 178 175 172 170 165 162 161 153 152 149 151 146 136 126 123 118 121 123 124 120 109 107 94 87 88 88
133 152 149 142 57 121 160 161 178 175 211 209 188 166 166 176 185 190 191 186 178 181 185 182 178 176 177 171 172 171 167 167 167 168 159 151 147 145 145 142 142 138 125 119 108 105 100 96 96
134 140 121 126 99 106 130 161 199 230 234 183 144 159 178 186 194 200 197 187 183 189 191 187 182 182 181 177 178 179 179 179 177 175 173 167 163 163 160 158 158 153 141 137 130 123 117 110 106
147 136 145 159 124 112 146 319 290 248 191 145 153 177 191 196 198 196 199 200 200 199 196 190 188 186 183 184 185 185 185 183 181 183 183 177 172 170 169 169 171 169 159 148 139 135 126 118 116
105 99 46 210 174 187 110 291 247 255 158 180 189 196 203 210 202 204 205 206 206 204 197 194 192 188 187 189 188 187 188 186 188 189 187 184 179 177 176 177 180 175 159 146 134 126 121 123 121
76 82 264 271 190 179 148 261 271 296 193 212 216 217 221 224 217 218 215 214 211 206 200 200 195 193 193 192 190 190 190 190 192 191 190 189 186 181 179 181 184 173 162 158 152 149 139 135 132
60 157 223 272 192 171 181 242 273 330 175 227 230 227 228 236 237 230 221 216 211 208 204 201 200 198 197 194 191 191 191 195 194 192 193 193 190 186 184 186 183 172 168 166 164 161 149 149 140
194 201 223 239 212 163 208 252 275 289 269 246 242 239 235 236 237 227 221 218 214 209 205 204 202 202 195 190 187 190 198 200 196 197 197 193 193 191 189 187 181 175 172 172 170 164 150 144 140
160 159 199 245 210 172 229 258 271 281 271 252 246 242 241 243 246 237 224 218 212 208 204 203 202 200 190 188 194 198 206 202 203 203 198 196 194 192 192 188 183 181 182 181 173 159 152 144 141
170 176 197 306 11 195 259 269 266 262 249 237 238 242 242 250 262 250 234 216 209 209 207 205 204 198 197 201 200 197 194 197 205 203 205 202 198 194 195 191 187 187 185 181 176 161 159 161 173
197 192 197 199 1 342 311 302 295 283 257 260 248 245 245 239 246 249 238 223 214 213 210 207 206 202 200 194 172 153 148 165 195 209 211 208 203 199 197 196 191 191 189 187 184 180 174 176 191
204 208 180 163 125 287 355 292 287 285 302 290 278 262 250 248 250 256 253 241 224 222 215 211 205 200 194 183 181 184 197 210 213 207 207 205 208 206 202 198 196 195 196 194 190 190 189 179 187
180 121 127 118 147 299 298 245 280 297 274 267 263 265 264 265 256 265 270 257 245 231 215 210 201 198 188 187 192 197 211 218 202 192 203 207 208 212 209 204 202 200 201 200 195 195 197 196 193
126 71 55 48 67 272 221 202 274 245 226 248 266 285 313 24 45 356 343 353 341 349 186 183 188 197 189 191 196 203 212 208 202 204 208 210 211 215 215 211 210 208 206 205 202 200 202 205 205
114 101 54 339 335 251 247 226 250 249 242 240 265 301 56 56 51 25 17 16 15 30 119 172 188 203 195 197 205 210 213 208 213 211 210 208 213 218 217 214 218 217 215 211 206 206 207 210 210
179 152 164 191 222 267 267 234 252 262 278 260 237 106 69 56 46 27 8 6 356 348 116 195 208 217 207 207 214 215 213 213 222 217 214 215 220 219 211 214 221 222 219 216 213 212 213 213 217
154 186 158 131 132 275 262 272 297 290 263 237 108 72 62 52 39 20 3 2 344 318 274 232 226 232 226 221 221 221 217 218 223 219 218 224 224 213 207 213 220 223 222 221 219 223 218 216 218
154 147 121 146 175 235 268 255 237 238 218 222 102 84 77 57 36 22 9 354 345 330 305 274 239 235 235 229 225 226 224 223 224 221 225 227 224 213 207 213 218 222 224 222 224 230 225 221 221
148 164 159 158 168 175 249 262 222 211 203 174 137 121 92 52 29 12 3 359 355 351 337 305 276 262 255 243 237 237 237 231 228 231 234 232 228 217 215 214 215 219 222 221 225 231 229 228 227
182 177 156 167 206 195 209 262 265 183 145 122 106 79 50 39 29 16 8 3 360 350 339 321 300 283 269 258 252 251 249 241 239 242 241 232 231 224 219 214 217 220 221 219 223 229 230 232 232